Location: Poughquag
(41.6090°N, 73.6820°W)
Time: 18:14:55
(UTC-04:00)

A-11 Canister half - Visible Passes

Search period start: 15 April 2024 00:00
Search period end: 25 April 2024 00:00
Orbit: 1526 x 1682 km, 47.3° (Epoch: 15 April)

Date Brightness Start Highest point End Pass type
(mag) Time Alt. Az. Time Alt. Az. Time Alt. Az.
17 Apr 10.7 05:32:18 10° S 05:40:18 28° SE 05:48:24 10° ENE visible
18 Apr 10.7 05:10:50 10° S 05:18:36 27° SE 05:26:29 10° ENE visible
19 Apr 10.7 04:49:24 10° S 04:56:54 25° SE 05:04:32 10° ENE visible
20 Apr 10.7 04:27:59 10° S 04:35:14 23° SE 04:42:34 10° E visible
21 Apr 10.7 04:06:36 10° S 04:13:32 22° SE 04:20:35 10° E visible
22 Apr 10.7 03:45:15 10° SSE 03:51:52 20° SE 03:58:34 10° E visible
23 Apr 10.7 03:24:12 11° SSE 03:30:12 19° SE 03:36:32 10° E visible
23 Apr 9.5 05:24:03 10° SW 05:33:45 62° SE 05:43:42 10° ENE visible
24 Apr 10.7 03:03:48 12° SSE 03:08:31 18° ESE 03:14:26 10° E visible
24 Apr 9.5 05:02:23 10° SW 05:12:00 60° SE 05:21:53 10° ENE visible
